ATLAS 5 CENTAUR DEB, 44645

Orbit data source: Space-Track

ATLAS 5 CENTAUR DEB, 44645 is space debris in HEO originally from a launch on Wed, 17 Oct 2018 UTC launched from the Air Force Eastern Test Range (AFETR). Debris objects in space refer to the collection of defunct objects orbiting the Earth. Examples of debris include non-operational satellites, rocket bodies, and fragments generated from explosions, collisions, or faulty payload assembly.

Loading next visibility...
Identifier
44645, 2018-079F
Orbit
HEO
Country
Flag of USUS
Related business
Flag of USUnited Launch Alliance/Lockheed Martin (US)
Manufacturer
ULA Decatur
Mission
Spacecraft
Bus & Motor
Unknown
Mass
Unknown
Launch date (UTC)
2018-10-17 (8 years ago)
Launch vehicle
Unknown
Launch site
Air Force Eastern Test Range (AFETR)
Object type
Payload
Rocket body
Debris
Shape & HBR
Unknown shape, 1.1 m
Radar Cross Section
RCS unknown

Expand to show TLE details & history
Last TLE update: 1 day ago

TLE from 1 day ago
0 ATLAS 5 CENTAUR DEB
1 44645U 18079F   26125.68515782 -.00000146  00000-0  00000-0 0  9998
2 44645  13.4070  19.7066 4646026 348.7473   3.7808  1.89811008 52237
Epoch: 2026-05-05T16:26Z
TLE epoch observation values (Epoch: 2026-05-05T16:26:37.635Z)
Latitude
-0.00003°
Longitude
-90.53305°
Altitude
8,456.82 km
Speed
6.267 km/s
True Right ascension
01h 18m 43s
True Declination
0° 00' 00"
Sunlit
Object was in daylight at epoch
Visualization orbit readout
Latitude
Unknown
Longitude
Unknown
Altitude
Unknown
Speed
Unknown
Apparent Right ascension
Unknown
Apparent Declination
Unknown
Sunlit
N/A
Visualization observer readout
Local Sidereal Time
04:28:54
Azimuth
Unknown
Elevation
Unknown
Doppler factor
Unknown
Orbital elements
Apogee altitude
33,980.919 km
Perigee altitude
8,375.444 km
Semi-major axis
27,556.319 km
Eccentricity
0.4646
Inclination
13.407°
RAAN
19.7066°
Arg. of periapsis
348.7473°
True anomaly
11.62879°
Mean anomaly
3.7808°
Eccentric anomaly
7.04627°
Mean motion
0.47447 °/min
Orbital period
758.74 mins
BSTAR
0
Loading maneuver chart data...
Computing Atmospheric mass density...

Documentation

Showing up to 5 results
|